RH
83 79 72 69 74 76 77 83 91 92 92 92 92 90 85 85 88 89 88 83 77 76 76 76 77 78 82 85 84 84 85 85 84 82 80 81 82 84 89 93 91 91
76 77 80 80 81 84 88 92 89 79 80 90 97 95 87 82 81 78 80 82 78 76 77 79 81 82 84 84 81 82 84 84 86 84 77 78 81 84 89 92 91 93
75 77 86 91 89 85 81 76 68 58 63 84 97 97 90 84 80 76 75 77 76 76 79 82 84 83 84 83 79 79 83 86 86 83 78 78 82 85 88 91 92 94
79 78 83 85 80 75 70 62 53 50 63 80 89 94 94 87 83 79 76 77 78 81 85 85 83 81 83 84 82 80 83 86 83 80 82 83 85 88 90 90 92 94
81 79 77 74 71 70 68 59 51 52 68 84 89 92 92 88 87 85 80 81 86 88 89 87 82 81 83 84 85 83 82 81 79 80 85 86 88 91 92 92 93 92
82 78 75 71 69 67 60 53 52 55 66 85 93 86 79 79 84 84 80 83 88 89 89 86 80 80 84 84 84 83 82 81 81 86 88 88 89 90 89 90 92 90
86 83 82 79 74 68 57 51 55 56 60 78 91 87 78 75 78 80 81 83 88 89 85 81 79 80 82 84 83 82 84 85 86 89 91 89 88 86 84 85 87 88
87 87 87 81 74 71 66 61 62 63 62 70 83 89 85 80 78 79 81 85 90 89 82 76 78 82 83 82 82 83 85 87 88 90 90 88 86 85 83 82 84 86
83 88 88 77 69 71 73 68 64 65 65 64 70 81 86 85 83 82 85 91 93 89 82 77 78 83 84 82 82 84 85 86 87 88 90 89 87 85 83 81 82 83
74 82 86 81 75 73 73 72 70 70 73 71 70 76 81 82 82 83 86 90 92 90 83 80 80 80 79 79 81 82 83 83 83 86 90 89 85 84 82 80 79 79
75 75 78 83 84 81 78 79 80 83 87 86 82 79 78 74 75 79 79 79 85 91 89 84 81 78 74 74 76 78 79 80 83 86 88 87 83 83 82 79 79 79
80 80 81 83 87 88 87 86 85 87 92 93 88 83 77 70 70 77 80 76 74 80 88 89 84 80 75 70 71 75 76 78 85 88 88 85 83 82 79 76 80 81
77 82 88 90 90 90 92 93 93 91 93 95 92 87 80 71 69 78 86 83 70 64 76 90 90 85 79 72 72 77 77 78 85 88 88 86 84 81 78 78 83 83
74 75 81 88 92 92 89 89 93 95 96 97 98 95 87 76 71 78 86 84 72 61 69 86 92 87 83 78 77 80 80 80 82 83 82 82 83 82 80 82 85 82
73 73 75 80 87 91 90 87 88 93 97 98 99 99 96 86 78 80 83 83 77 69 71 85 90 88 86 81 76 75 76 77 78 77 75 76 80 80 78 81 84 82
78 78 77 78 81 85 89 89 89 91 94 97 98 98 99 96 88 83 83 85 84 77 76 85 90 88 88 83 76 72 71 71 72 71 71 73 73 72 72 75 77 78
73 77 79 80 82 86 88 91 95 95 94 96 98 96 95 96 94 91 89 90 89 81 79 85 89 88 88 83 75 71 70 71 71 71 71 71 69 70 72 72 72 73
63 68 73 76 83 91 94 95 99 99 98 99 96 93 93 95 96 94 92 92 92 87 84 86 88 89 88 80 72 71 75 77 77 74 71 70 71 74 76 75 76 75
64 62 64 68 77 90 97 99 100 99 101 100 93 89 92 95 96 94 93 94 93 90 88 88 88 89 85 79 75 76 78 78 75 71 69 69 71 74 75 76 78 80
68 65 64 65 71 82 91 96 98 98 99 99 94 90 91 95 98 98 98 97 95 92 87 86 89 88 82 80 81 78 74 72 69 66 66 68 70 72 71 71 77 84
71 68 68 68 72 80 86 91 95 98 98 99 99 97 96 97 99 100 100 99 99 96 88 87 92 89 81 81 82 76 71 71 70 68 66 67 71 72 67 69 78 84
75 69 70 72 76 84 89 91 95 99 100 99 100 100 100 99 99 100 100 98 99 98 92 90 91 85 81 84 84 75 71 71 71 71 68 67 71 70 67 72 79 79
83 74 72 74 77 82 86 89 93 97 99 100 100 100 100 100 100 100 100 99 100 98 90 85 83 80 82 86 84 76 72 72 72 72 70 68 68 68 70 76 77 73
91 82 76 77 80 83 87 91 95 98 99 100 100 100 100 99 99 99 100 100 100 95 86 80 80 84 86 85 80 75 73 71 70 69 69 69 67 67 73 79 76 71
95 90 84 83 86 89 93 96 98 99 99 99 100 100 98 97 99 101 101 99 97 90 84 82 83 86 87 83 78 75 71 66 62 62 65 67 67 69 76 82 80 75
95 96 94 91 91 94 98 100 100 98 98 99 100 100 99 98 98 94 89 92 95 89 82 82 84 85 85 82 78 76 70 62 59 61 62 64 67 72 78 82 81 78
Wind_Speed
14 14 14 15 16 16 15 15 14 14 15 16 15 16 17 17 16 17 18 18 18 19 20 20 19 19 19 19 19 19 19 19 18 18 18 18 17 16 15 14 13 14
11 11 12 13 13 13 13 13 15 17 17 16 15 15 17 16 15 16 18 18 19 20 20 20 20 20 20 19 19 18 19 19 18 18 18 18 17 16 15 14 13 13
10 9 9 10 10 11 13 12 13 17 19 17 15 16 17 16 16 16 18 19 20 20 20 20 20 20 20 19 18 18 19 19 19 18 18 18 18 17 16 15 13 13
11 10 10 10 10 10 10 9 10 14 18 17 15 17 18 17 16 17 18 18 19 20 20 20 20 19 20 20 19 18 19 19 19 18 18 18 18 16 16 14 14 14
13 12 12 12 11 9 8 10 11 12 15 16 16 17 17 16 17 17 18 19 19 20 20 20 20 19 20 20 20 19 19 19 19 18 18 18 17 16 15 14 14 13
14 13 12 12 13 12 11 11 11 12 14 16 16 17 17 17 18 19 19 20 20 21 21 20 20 20 20 21 21 21 20 19 18 18 18 17 16 16 15 15 15 13
10 11 11 12 13 14 12 11 12 13 14 16 17 18 18 19 20 21 21 22 22 22 21 21 21 21 21 21 21 21 20 19 19 20 19 18 17 16 16 16 15 14
8 11 12 12 13 13 14 14 14 15 16 18 19 19 20 20 21 22 23 24 24 23 22 22 22 22 21 21 21 20 19 19 20 19 19 18 18 17 16 16 16 15
9 11 12 13 13 14 15 16 17 17 18 20 20 20 21 21 21 22 24 25 25 23 21 21 22 23 22 21 21 20 19 19 19 18 18 19 18 17 16 16 16 16
10 13 14 14 15 15 16 17 18 19 20 21 20 20 22 22 21 22 24 25 24 22 20 20 21 22 22 22 22 21 20 19 19 18 18 18 17 16 16 15 15 16
12 15 17 17 17 17 17 18 19 20 21 21 21 21 22 23 23 23 24 24 24 22 20 18 19 21 22 22 23 22 21 19 18 18 17 17 17 16 16 15 15 16
12 15 18 19 19 19 19 19 20 21 21 22 22 22 23 24 24 24 24 24 24 22 20 18 17 19 20 21 22 22 21 19 18 17 17 16 16 16 16 16 16 16
10 13 16 18 19 20 21 21 21 21 22 22 22 22 24 25 24 24 24 24 24 22 21 19 18 18 19 19 20 20 20 20 19 18 17 16 16 15 15 16 16 16
9 11 14 17 18 19 21 22 22 22 22 23 23 24 25 26 25 24 24 23 23 23 22 20 20 19 19 19 19 19 19 19 19 19 18 17 17 16 16 16 16 16
12 11 12 15 17 19 20 21 23 23 23 24 24 25 26 27 26 26 25 24 24 25 23 22 21 20 19 19 19 19 20 20 20 19 18 18 17 17 17 16 16 17
15 12 12 13 16 18 19 20 21 23 24 25 26 26 27 28 28 27 27 26 26 25 23 22 21 20 19 18 19 19 20 20 20 19 19 18 18 17 17 17 17 17
21 17 16 15 14 15 17 18 18 19 22 24 25 27 29 29 29 28 28 27 26 23 22 21 21 20 18 18 18 19 19 20 20 20 19 18 17 16 15 15 16 16
26 23 21 18 15 13 13 15 15 15 17 19 21 24 27 28 29 29 29 28 26 23 22 21 21 20 18 18 19 19 19 19 19 20 20 18 17 15 15 14 14 15
29 28 26 24 19 13 10 11 13 13 14 15 16 18 21 24 26 27 29 29 27 25 24 22 21 20 18 18 19 19 19 19 19 19 19 18 17 15 14 13 13 15
31 30 30 29 24 17 11 9 10 11 12 13 13 14 15 18 22 26 28 28 27 27 26 24 22 20 19 19 20 19 18 18 18 19 19 19 17 15 13 13 14 16
31 31 32 31 28 21 14 12 13 13 14 14 14 14 15 18 22 26 29 28 27 27 27 25 22 20 20 21 21 20 18 18 18 18 18 18 17 15 13 12 13 15
29 31 32 32 30 24 17 15 16 16 16 15 14 15 16 19 23 27 29 28 27 27 26 24 22 20 21 22 21 20 19 18 17 17 18 17 16 15 13 12 14 15
28 30 32 33 32 28 22 19 17 17 15 13 13 14 16 18 22 26 27 25 26 25 22 20 19 20 21 21 21 21 20 18 17 18 18 17 16 16 14 14 16 17
25 28 30 32 33 31 28 24 21 18 15 11 9 11 12 13 16 22 24 21 21 21 20 19 19 21 21 20 21 21 19 17 17 19 20 19 18 17 16 16 17 18
23 25 28 29 31 31 29 26 23 19 16 13 9 7 6 6 7 11 13 13 14 16 18 19 19 20 20 21 21 21 19 17 16 18 20 21 20 20 20 18 19 20
21 23 25 26 28 28 26 24 23 19 16 13 11 9 6 2 2 2 2 5 10 15 16 16 17 19 21 21 21 20 19 16 14 14 17 20 22 25 26 24 23 23
Wind_Direction
300 293 287 278 278 283 286 290 294 293 284 274 266 252 238 233 228 226 227 228 228 227 227 228 227 225 220 216 213 211 211 213 214 213 212 211 213 214 216 220 219 216
293 289 287 284 281 283 287 293 303 304 291 276 266 248 231 228 230 229 227 230 232 230 229 229 226 223 219 215 212 211 211 214 215 215 214 213 215 217 220 224 221 214
267 268 272 279 279 283 289 296 307 300 279 261 254 242 225 220 224 224 223 228 232 231 230 227 223 221 219 216 215 214 213 215 216 216 216 218 219 221 225 227 223 215
252 252 252 266 285 290 282 278 285 278 263 253 248 238 224 216 217 218 222 227 228 227 226 223 221 220 219 218 218 218 217 217 217 216 217 221 221 224 228 226 224 222
258 256 251 258 277 275 245 246 259 257 251 249 244 236 227 218 216 219 222 224 221 219 220 222 222 221 220 220 219 220 220 217 215 215 217 220 220 222 226 224 225 228
261 260 255 253 261 255 231 232 250 252 249 245 239 239 237 226 220 222 223 222 218 216 219 222 223 222 221 221 220 222 222 218 216 216 218 220 220 220 223 223 224 227
258 249 248 246 251 253 243 237 245 250 250 245 237 236 236 227 221 221 222 221 218 217 221 223 222 221 220 220 220 221 222 221 219 217 217 220 222 222 223 224 225 223
248 239 245 250 251 252 248 245 249 249 246 243 237 233 229 223 221 221 221 220 218 218 222 222 220 218 219 219 219 220 221 223 224 219 216 219 223 224 223 223 224 222
262 254 253 254 254 252 247 245 249 250 245 240 238 236 231 224 221 222 222 220 217 218 222 221 217 216 217 219 219 221 222 224 227 224 219 219 222 223 224 224 223 222
271 266 260 255 255 254 250 246 249 251 248 242 239 237 234 227 222 222 223 223 221 218 219 218 217 216 217 220 221 221 223 224 226 225 222 222 223 223 224 223 223 222
265 262 263 263 262 258 252 248 248 249 247 242 238 235 233 230 226 222 221 222 223 222 219 216 217 219 219 222 222 221 222 223 224 225 224 224 225 223 222 221 219 219
272 265 264 266 265 263 260 256 253 249 245 242 238 235 233 231 229 225 221 220 221 225 224 220 221 223 223 224 224 221 221 220 221 223 223 224 225 222 221 219 214 213
294 279 274 271 268 266 265 264 261 255 248 244 241 239 236 232 230 227 225 222 221 223 225 223 225 230 229 227 224 222 221 220 220 220 220 222 223 219 217 214 210 210
329 301 287 279 275 272 267 266 265 260 254 248 244 242 238 234 232 229 228 226 223 222 221 221 226 233 232 228 225 223 222 220 220 220 218 218 218 215 213 211 210 211
345 324 302 287 280 276 271 267 264 263 260 254 249 245 239 235 233 230 229 229 225 221 217 217 225 231 230 229 227 224 223 221 219 218 216 215 213 210 210 210 211 211
2 345 325 306 289 280 275 271 267 265 262 258 253 249 244 238 233 230 230 230 225 218 213 216 224 227 227 229 228 223 221 220 217 213 211 208 205 205 207 209 212 212
14 3 348 331 310 292 282 276 273 271 266 262 258 251 246 241 236 232 231 229 221 213 212 216 220 223 225 225 222 220 218 215 210 205 201 198 198 202 209 212 216 217
18 12 3 351 334 314 294 282 278 277 276 275 269 258 251 248 242 235 232 228 220 212 213 217 218 220 222 219 216 214 209 204 202 198 195 196 199 204 211 217 222 220
17 14 11 5 354 338 316 295 283 280 283 285 279 267 260 255 247 239 234 231 222 214 212 215 217 217 216 212 208 205 200 198 201 202 201 202 202 204 211 217 220 219
16 13 11 8 3 354 339 321 309 301 297 295 290 281 271 262 251 242 237 232 225 220 216 213 213 216 212 207 203 200 199 201 205 207 206 204 203 204 211 217 220 219
17 15 13 9 5 0 354 347 342 330 315 309 301 286 272 262 251 240 234 231 225 222 220 213 211 213 208 204 202 200 200 203 207 206 203 203 203 205 212 218 217 215
18 19 18 16 11 8 6 2 356 343 324 309 297 280 262 254 247 237 232 229 224 221 218 212 210 210 206 204 204 203 202 204 207 205 203 205 208 208 211 211 204 202
18 20 21 22 22 20 19 15 7 356 339 315 294 277 258 245 240 234 229 226 223 219 213 208 207 204 202 204 204 203 205 209 212 212 211 214 215 210 206 200 194 193
17 20 22 27 29 28 27 24 18 9 359 345 319 289 268 252 238 228 221 221 220 212 203 201 202 197 198 203 203 202 208 215 220 221 219 219 219 210 200 196 192 189
19 21 23 30 35 35 34 32 27 21 18 16 9 343 309 280 239 212 207 214 211 200 195 197 198 198 201 203 201 202 210 217 221 223 219 220 221 209 198 196 195 189
24 26 28 34 39 40 40 41 38 32 30 36 41 38 38 60 90 64 330 254 206 191 194 199 200 202 204 203 202 204 208 213 220 222 218 219 219 208 197 194 195 191